Time,TemperatureF,DewpointF,PressureIn,WindDirection,WindDirectionDegrees,WindSpeedMPH,WindSpeedGustMPH,Humidity,HourlyPrecipIn,Conditions,Clouds,dailyrainin,SoftwareType,DateUTC
2013-05-04 00:00:00,34.0,29.7,30.19,NNE,22,5.5,8.0,84,0.00,CLR,CLR,0.00,WeatherDisplay:10.37,2013-05-04 05:00:00,
2013-05-04 00:05:00,33.8,29.5,30.19,NNE,22,4.4,6.3,84,0.00,CLR,CLR,0.00,WeatherDisplay:10.37,2013-05-04 05:05:00,
2013-05-04 00:10:00,33.8,29.5,30.19,North,0,6.0,6.9,84,0.00,CLR,CLR,0.00,WeatherDisplay:10.37,2013-05-04 05:10:00,
2013-05-04 00:16:00,33.8,29.5,30.19,North,0,7.5,8.1,84,0.00,CLR,CLR,0.00,WeatherDisplay:10.37,2013-05-04 05:16:00,
2013-05-04 00:21:00,33.8,29.5,30.18,NE,45,7.8,11.5,84,0.00,CLR,CLR,0.00,WeatherDisplay:10.37,2013-05-04 05:21:00,
2013-05-04 00:26:00,33.8,29.5,30.18,North,0,6.4,8.1,84,0.00,CLR,CLR,0.00,WeatherDisplay:10.37,2013-05-04 05:26:00,
2013-05-04 00:31:00,33.8,29.5,30.18,North,0,7.3,9.2,84,0.00,CLR,CLR,0.00,WeatherDisplay:10.37,2013-05-04 05:31:00,
2013-05-04 00:36:00,33.8,29.5,30.18,North,0,8.5,10.4,84,0.00,CLR,CLR,0.00,WeatherDisplay:10.37,2013-05-04 05:36:00,
2013-05-04 00:42:00,33.8,29.5,30.18,NNE,22,7.5,11.5,84,0.00,CLR,CLR,0.00,WeatherDisplay:10.37,2013-05-04 05:42:00,
2013-05-04 00:47:00,33.6,29.3,30.17,NNE,22,8.4,11.4,84,0.00,CLR,CLR,0.00,WeatherDisplay:10.37,2013-05-04 05:47:00,
2013-05-04 00:52:00,33.6,29.3,30.17,North,0,7.8,12.7,84,0.00,CLR,CLR,0.00,WeatherDisplay:10.37,2013-05-04 05:52:00,
2013-05-04 00:57:00,33.6,29.3,30.18,North,0,9.4,10.4,84,0.00,CLR,CLR,0.00,WeatherDisplay:10.37,2013-05-04 05:57:00,
2013-05-04 01:03:00,33.6,29.3,30.18,North,0,7.3,9.2,84,0.00,CLR,CLR,0.00,WeatherDisplay:10.37,2013-05-04 06:03:00,
2013-05-04 01:08:00,33.6,29.0,30.18,North,0,5.5,8.5,83,0.00,CLR,CLR,0.00,WeatherDisplay:10.37,2013-05-04 06:08:00,
2013-05-04 01:13:00,33.6,29.3,30.18,NNE,22,8.0,8.3,84,0.00,CLR,CLR,0.00,WeatherDisplay:10.37,2013-05-04 06:13:00,
2013-05-04 01:18:00,33.6,29.3,30.18,North,0,8.6,13.8,84,0.00,CLR,CLR,0.00,WeatherDisplay:10.37,2013-05-04 06:18:00,
2013-05-04 01:23:00,33.6,29.0,30.18,NNE,22,5.4,8.1,83,0.00,CLR,CLR,0.00,WeatherDisplay:10.37,2013-05-04 06:23:00,
2013-05-04 01:29:00,33.6,29.0,30.18,North,0,5.5,6.9,83,0.00,CLR,CLR,0.00,WeatherDisplay:10.37,2013-05-04 06:29:00,
2013-05-04 01:34:00,33.6,29.0,30.18,NW,315,4.5,5.8,83,0.00,CLR,CLR,0.00,WeatherDisplay:10.37,2013-05-04 06:34:00,
2013-05-04 01:39:00,33.4,28.8,30.18,NE,45,5.0,9.2,83,0.00,CLR,CLR,0.00,WeatherDisplay:10.37,2013-05-04 06:39:00,
2013-05-04 01:44:00,33.3,28.7,30.18,North,0,2.7,9.4,83,0.00,CLR,CLR,0.00,WeatherDisplay:10.37,2013-05-04 06:44:00,
2013-05-04 01:50:00,33.1,28.5,30.18,NNW,338,6.5,10.3,83,0.00,CLR,CLR,0.00,WeatherDisplay:10.37,2013-05-04 06:50:00,
2013-05-04 01:55:00,33.1,28.8,30.18,NNE,22,5.3,8.1,84,0.00,CLR,CLR,0.00,WeatherDisplay:10.37,2013-05-04 06:55:00,
2013-05-04 02:00:00,32.9,28.6,30.18,North,0,7.0,8.1,84,0.00,CLR,CLR,0.00,WeatherDisplay:10.37,2013-05-04 07:00:00,
2013-05-04 02:05:00,32.7,28.4,30.17,NW,315,6.3,11.5,84,0.00,CLR,CLR,0.00,WeatherDisplay:10.37,2013-05-04 07:05:00,
2013-05-04 02:11:00,32.7,28.7,30.17,NE,45,6.9,9.2,85,0.00,CLR,CLR,0.00,WeatherDisplay:10.37,2013-05-04 07:11:00,
2013-05-04 02:16:00,32.7,28.7,30.17,North,0,7.8,10.4,85,0.00,CLR,CLR,0.00,WeatherDisplay:10.37,2013-05-04 07:16:00,
2013-05-04 02:21:00,32.5,28.8,30.17,North,0,8.6,9.2,86,0.00,CLR,CLR,0.00,WeatherDisplay:10.37,2013-05-04 07:21:00,
2013-05-04 02:26:00,32.5,28.8,30.17,North,0,6.4,11.5,86,0.00,CLR,CLR,0.00,WeatherDisplay:10.37,2013-05-04 07:26:00,
2013-05-04 02:31:00,32.5,29.1,30.17,North,0,5.3,6.9,87,0.00,CLR,CLR,0.00,WeatherDisplay:10.37,2013-05-04 07:31:00,
2013-05-04 02:37:00,32.4,28.9,30.16,NNW,338,8.7,11.5,87,0.02,RA,RA,0.02,WeatherDisplay:10.37,2013-05-04 07:37:00,
2013-05-04 02:42:00,32.4,28.9,30.16,NNW,338,7.4,8.1,87,0.02,RA,RA,0.02,WeatherDisplay:10.37,2013-05-04 07:42:00,
2013-05-04 02:47:00,32.4,28.9,30.16,North,0,7.8,9.2,87,0.02,CLR,CLR,0.02,WeatherDisplay:10.37,2013-05-04 07:47:00,
2013-05-04 02:52:00,32.2,28.7,30.16,North,0,6.4,8.1,87,0.02,CLR,CLR,0.02,WeatherDisplay:10.37,2013-05-04 07:52:00,
2013-05-04 02:57:00,32.2,28.7,30.16,North,0,7.3,8.1,87,0.04,RA,RA,0.04,WeatherDisplay:10.37,2013-05-04 07:57:00,
2013-05-04 03:03:00,32.2,28.7,30.16,NNE,22,9.5,10.5,87,0.04,RA,RA,0.04,WeatherDisplay:10.37,2013-05-04 08:03:00,
2013-05-04 03:08:00,32.2,29.0,30.16,North,0,7.4,11.5,88,0.04,,,0.04,WeatherDisplay:10.37,2013-05-04 08:08:00,
2013-05-04 03:13:00,32.2,29.0,30.16,North,0,11.7,13.8,88,0.04,CLR,CLR,0.04,WeatherDisplay:10.37,2013-05-04 08:13:00,
2013-05-04 03:18:00,32.2,29.0,30.16,North,0,8.3,12.7,88,0.04,CLR,CLR,0.04,WeatherDisplay:10.37,2013-05-04 08:18:00,
2013-05-04 03:23:00,32.2,29.0,30.16,North,0,5.8,8.1,88,0.04,CLR,CLR,0.04,WeatherDisplay:10.37,2013-05-04 08:23:00,
2013-05-04 03:29:00,32.2,29.0,30.16,NNE,22,5.9,9.6,88,0.04,CLR,CLR,0.04,WeatherDisplay:10.37,2013-05-04 08:29:00,
2013-05-04 03:34:00,32.2,29.0,30.15,NNE,22,8.8,10.4,88,0.04,CLR,CLR,0.04,WeatherDisplay:10.37,2013-05-04 08:34:00,
2013-05-04 03:39:00,32.2,29.3,30.15,NE,45,7.1,12.7,89,0.04,RA,RA,0.06,WeatherDisplay:10.37,2013-05-04 08:39:00,
2013-05-04 03:44:00,32.2,29.3,30.16,NW,315,7.1,10.4,89,0.04,RA,RA,0.06,WeatherDisplay:10.37,2013-05-04 08:44:00,
2013-05-04 03:49:00,32.2,29.3,30.15,NNW,338,10.6,10.6,89,0.04,,,0.06,WeatherDisplay:10.37,2013-05-04 08:49:00,
2013-05-04 03:55:00,32.2,29.3,30.15,North,0,7.9,10.4,89,0.04,CLR,CLR,0.06,WeatherDisplay:10.37,2013-05-04 08:55:00,
2013-05-04 04:00:00,32.2,29.3,30.15,NNW,338,7.5,9.2,89,0.02,CLR,CLR,0.06,WeatherDisplay:10.37,2013-05-04 09:00:00,
2013-05-04 04:05:00,32.2,29.3,30.15,NNE,22,7.6,9.2,89,0.02,CLR,CLR,0.06,WeatherDisplay:10.37,2013-05-04 09:05:00,
2013-05-04 04:10:00,32.2,29.3,30.15,NNE,22,5.5,6.9,89,0.02,CLR,CLR,0.06,WeatherDisplay:10.37,2013-05-04 09:10:00,
2013-05-04 04:16:00,32.2,29.3,30.16,North,0,11.5,12.7,89,0.02,CLR,CLR,0.08,WeatherDisplay:10.37,2013-05-04 09:16:00,
2013-05-04 04:21:00,32.2,29.3,30.15,North,0,8.4,11.5,89,0.04,RA,RA,0.08,WeatherDisplay:10.37,2013-05-04 09:21:00,
2013-05-04 04:26:00,32.0,29.1,30.16,NNW,338,5.0,9.2,89,0.04,RA,RA,0.08,WeatherDisplay:10.37,2013-05-04 09:26:00,
2013-05-04 04:31:00,32.2,29.3,30.16,NE,45,10.0,14.5,89,0.04,CLR,CLR,0.08,WeatherDisplay:10.37,2013-05-04 09:31:00,
2013-05-04 04:36:00,32.2,29.3,30.16,North,0,11.1,15.0,89,0.04,CLR,CLR,0.08,WeatherDisplay:10.37,2013-05-04 09:36:00,
2013-05-04 04:42:00,31.8,28.9,30.16,NNE,22,4.4,5.8,89,0.02,CLR,CLR,0.08,WeatherDisplay:10.37,2013-05-04 09:42:00,
2013-05-04 04:47:00,31.8,28.9,30.16,ENE,68,1.4,5.8,89,0.02,CLR,CLR,0.08,WeatherDisplay:10.37,2013-05-04 09:47:00,
2013-05-04 04:52:00,32.0,29.1,30.16,North,0,4.6,6.9,89,0.04,RA,RA,0.10,WeatherDisplay:10.37,2013-05-04 09:52:00,
2013-05-04 04:57:00,32.2,29.3,30.16,NNE,22,3.7,6.9,89,0.04,RA,RA,0.10,WeatherDisplay:10.37,2013-05-04 09:57:00,
2013-05-04 05:03:00,32.2,29.3,30.16,North,0,3.2,4.6,89,0.04,CLR,CLR,0.10,WeatherDisplay:10.37,2013-05-04 10:03:00,
2013-05-04 05:08:00,32.2,29.3,30.16,NNE,22,6.0,6.0,89,0.04,CLR,CLR,0.10,WeatherDisplay:10.37,2013-05-04 10:08:00,
2013-05-04 05:13:00,32.2,29.3,30.16,NNE,22,5.7,9.2,89,0.04,CLR,CLR,0.10,WeatherDisplay:10.37,2013-05-04 10:13:00,
2013-05-04 05:18:00,32.2,29.3,30.16,NNE,22,6.7,9.6,89,0.02,CLR,CLR,0.10,WeatherDisplay:10.37,2013-05-04 10:18:00,
2013-05-04 05:24:00,32.2,29.3,30.16,North,0,3.3,8.1,89,0.02,CLR,CLR,0.10,WeatherDisplay:10.37,2013-05-04 10:24:00,
2013-05-04 05:29:00,32.2,29.3,30.16,North,0,5.2,9.2,89,0.02,CLR,CLR,0.10,WeatherDisplay:10.37,2013-05-04 10:29:00,
2013-05-04 05:34:00,32.2,29.3,30.16,North,0,4.5,10.4,89,0.02,CLR,CLR,0.10,WeatherDisplay:10.37,2013-05-04 10:34:00,
2013-05-04 05:39:00,32.2,29.6,30.16,North,0,5.4,8.1,90,0.02,CLR,CLR,0.10,WeatherDisplay:10.37,2013-05-04 10:39:00,
2013-05-04 05:45:00,32.2,29.6,30.16,North,0,4.0,5.1,90,0.04,RA,RA,0.12,WeatherDisplay:10.37,2013-05-04 10:45:00,
2013-05-04 05:50:00,32.2,29.6,30.16,NE,45,2.3,8.1,90,0.02,RA,RA,0.12,WeatherDisplay:10.37,2013-05-04 10:50:00,
2013-05-04 05:55:00,32.2,29.6,30.16,North,0,6.0,9.2,90,0.02,CLR,CLR,0.12,WeatherDisplay:10.37,2013-05-04 10:55:00,
2013-05-04 06:00:00,32.2,29.6,30.16,NNE,22,5.3,8.1,90,0.02,CLR,CLR,0.12,WeatherDisplay:10.37,2013-05-04 11:00:00,
2013-05-04 06:06:00,32.2,29.6,30.16,NE,45,5.6,6.9,90,0.04,RA,RA,0.14,WeatherDisplay:10.37,2013-05-04 11:06:00,
2013-05-04 06:11:00,32.2,29.6,30.16,NNW,338,9.1,10.7,90,0.04,RA,RA,0.14,WeatherDisplay:10.37,2013-05-04 11:11:00,
2013-05-04 06:16:00,32.2,29.6,30.16,NNE,22,7.6,9.2,90,0.04,CLR,CLR,0.14,WeatherDisplay:10.37,2013-05-04 11:16:00,
2013-05-04 06:21:00,32.2,29.6,30.15,North,0,8.7,12.7,90,0.06,RA,RA,0.16,WeatherDisplay:10.37,2013-05-04 11:21:00,
2013-05-04 06:26:00,32.2,29.6,30.15,North,0,7.5,11.6,90,0.06,RA,RA,0.16,WeatherDisplay:10.37,2013-05-04 11:26:00,
2013-05-04 06:32:00,32.2,29.6,30.15,NNW,338,9.8,12.7,90,0.06,,,0.16,WeatherDisplay:10.37,2013-05-04 11:32:00,
2013-05-04 06:37:00,32.4,29.8,30.15,North,0,4.5,9.2,90,0.06,CLR,CLR,0.16,WeatherDisplay:10.37,2013-05-04 11:37:00,
2013-05-04 06:42:00,32.4,29.8,30.15,NNE,22,7.8,9.8,90,0.06,CLR,CLR,0.16,WeatherDisplay:10.37,2013-05-04 11:42:00,
2013-05-04 06:47:00,32.4,29.8,30.15,NW,315,5.6,6.9,90,0.06,RA,RA,0.18,WeatherDisplay:10.37,2013-05-04 11:47:00,
2013-05-04 06:52:00,32.5,29.9,30.15,North,0,5.4,9.2,90,0.06,RA,RA,0.18,WeatherDisplay:10.37,2013-05-04 11:52:00,
2013-05-04 06:57:00,32.5,29.9,30.15,North,0,9.8,12.7,90,0.06,CLR,CLR,0.18,WeatherDisplay:10.37,2013-05-04 11:57:00,
2013-05-04 07:02:00,32.5,29.9,30.16,North,0,3.2,4.6,90,0.06,CLR,CLR,0.18,WeatherDisplay:10.37,2013-05-04 12:02:00,
2013-05-04 07:07:00,32.5,29.9,30.16,North,0,8.8,10.4,90,0.04,CLR,CLR,0.18,WeatherDisplay:10.37,2013-05-04 12:07:00,
2013-05-04 07:13:00,32.5,29.9,30.16,North,0,7.4,9.2,90,0.04,CLR,CLR,0.18,WeatherDisplay:10.37,2013-05-04 12:13:00,
2013-05-04 07:18:00,32.5,29.9,30.16,NNW,338,3.1,4.7,90,0.04,CLR,CLR,0.18,WeatherDisplay:10.37,2013-05-04 12:18:00,
2013-05-04 07:24:00,32.7,30.1,30.16,NNE,22,6.4,9.2,90,0.02,CLR,CLR,0.18,WeatherDisplay:10.37,2013-05-04 12:24:00,
2013-05-04 07:29:00,32.7,30.1,30.16,North,0,6.9,6.9,90,0.02,CLR,CLR,0.18,WeatherDisplay:10.37,2013-05-04 12:29:00,
2013-05-04 07:34:00,32.7,30.1,30.16,North,0,9.0,11.5,90,0.02,CLR,CLR,0.18,WeatherDisplay:10.37,2013-05-04 12:34:00,
2013-05-04 07:40:00,32.7,30.1,30.16,North,0,6.2,8.3,90,0.02,CLR,CLR,0.18,WeatherDisplay:10.37,2013-05-04 12:40:00,
2013-05-04 07:45:00,32.9,30.3,30.16,ESE,112,8.3,10.4,90,0.00,CLR,CLR,0.18,WeatherDisplay:10.37,2013-05-04 12:45:00,
2013-05-04 07:50:00,32.9,30.3,30.16,North,0,7.1,9.2,90,0.00,CLR,CLR,0.18,WeatherDisplay:10.37,2013-05-04 12:50:00,
2013-05-04 07:55:00,33.1,30.5,30.16,North,0,6.5,8.7,90,0.00,CLR,CLR,0.18,WeatherDisplay:10.37,2013-05-04 12:55:00,
2013-05-04 08:00:00,33.1,30.5,30.16,NNE,22,4.8,9.2,90,0.00,CLR,CLR,0.18,WeatherDisplay:10.37,2013-05-04 13:00:00,
2013-05-04 08:05:00,33.1,30.5,30.16,North,0,9.0,11.5,90,0.00,CLR,CLR,0.18,WeatherDisplay:10.37,2013-05-04 13:05:00,
2013-05-04 08:10:00,33.3,30.6,30.16,NNE,22,8.7,10.4,90,0.00,CLR,CLR,0.18,WeatherDisplay:10.37,2013-05-04 13:10:00,
2013-05-04 08:15:00,33.4,30.8,30.16,North,0,8.4,12.7,90,0.02,RA,RA,0.20,WeatherDisplay:10.37,2013-05-04 13:15:00,
2013-05-04 08:20:00,33.4,30.8,30.16,North,0,7.8,10.5,90,0.02,RA,RA,0.20,WeatherDisplay:10.37,2013-05-04 13:20:00,
2013-05-04 08:25:00,33.4,30.8,30.16,NNE,22,5.6,8.1,90,0.02,,,0.20,WeatherDisplay:10.37,2013-05-04 13:25:00,
2013-05-04 08:30:00,33.4,30.8,30.16,North,0,8.6,11.5,90,0.02,CLR,CLR,0.20,WeatherDisplay:10.37,2013-05-04 13:30:00,
2013-05-04 08:36:00,33.6,31.0,30.16,North,0,7.0,9.2,90,0.02,CLR,CLR,0.20,WeatherDisplay:10.37,2013-05-04 13:36:00,
2013-05-04 08:41:00,33.8,31.2,30.15,NNW,338,7.3,7.3,90,0.02,CLR,CLR,0.20,WeatherDisplay:10.37,2013-05-04 13:41:00,
2013-05-04 08:46:00,34.0,31.4,30.16,North,0,5.4,6.9,90,0.02,CLR,CLR,0.20,WeatherDisplay:10.37,2013-05-04 13:46:00,
2013-05-04 08:51:00,34.3,31.7,30.16,North,0,4.7,8.1,90,0.02,CLR,CLR,0.20,WeatherDisplay:10.37,2013-05-04 13:51:00,
2013-05-04 08:57:00,34.5,31.9,30.16,North,0,8.7,16.1,90,0.02,CLR,CLR,0.20,WeatherDisplay:10.37,2013-05-04 13:57:00,
2013-05-04 09:02:00,34.7,32.1,30.16,North,0,7.4,10.1,90,0.02,CLR,CLR,0.20,WeatherDisplay:10.37,2013-05-04 14:02:00,
2013-05-04 09:07:00,34.9,32.2,30.16,NNE,22,7.5,10.4,90,0.02,CLR,CLR,0.20,WeatherDisplay:10.37,2013-05-04 14:07:00,
2013-05-04 09:12:00,35.1,32.4,30.16,NNW,338,6.6,9.2,90,0.02,CLR,CLR,0.20,WeatherDisplay:10.37,2013-05-04 14:12:00,
2013-05-04 09:17:00,35.2,32.6,30.16,NNW,338,5.4,8.1,90,0.00,CLR,CLR,0.20,WeatherDisplay:10.37,2013-05-04 14:17:00,
2013-05-04 09:23:00,35.4,32.8,30.16,North,0,7.1,11.5,90,0.00,CLR,CLR,0.20,WeatherDisplay:10.37,2013-05-04 14:23:00,
2013-05-04 09:28:00,35.2,32.3,30.16,North,0,9.3,10.4,89,0.00,CLR,CLR,0.20,WeatherDisplay:10.37,2013-05-04 14:28:00,
2013-05-04 09:33:00,35.2,32.3,30.17,North,0,10.7,13.8,89,0.00,CLR,CLR,0.20,WeatherDisplay:10.37,2013-05-04 14:33:00,
2013-05-04 09:38:00,35.2,32.3,30.16,North,0,10.9,13.8,89,0.00,CLR,CLR,0.20,WeatherDisplay:10.37,2013-05-04 14:38:00,
2013-05-04 09:43:00,35.2,32.3,30.16,NNE,22,5.9,10.4,89,0.00,CLR,CLR,0.20,WeatherDisplay:10.37,2013-05-04 14:43:00,
2013-05-04 09:49:00,35.4,32.5,30.16,NNE,22,10.5,12.7,89,0.00,CLR,CLR,0.20,WeatherDisplay:10.37,2013-05-04 14:49:00,
2013-05-04 09:54:00,35.4,32.5,30.17,West,270,3.5,5.8,89,0.00,CLR,CLR,0.20,WeatherDisplay:10.37,2013-05-04 14:54:00,
2013-05-04 09:59:00,35.4,32.2,30.17,North,0,4.8,5.8,88,0.00,CLR,CLR,0.20,WeatherDisplay:10.37,2013-05-04 14:59:00,
2013-05-04 10:04:00,35.8,32.6,30.17,North,0,4.7,4.7,88,0.00,CLR,CLR,0.20,WeatherDisplay:10.37,2013-05-04 15:04:00,
2013-05-04 10:09:00,35.8,32.6,30.17,NNE,22,4.0,6.3,88,0.00,CLR,CLR,0.20,WeatherDisplay:10.37,2013-05-04 15:09:00,
2013-05-04 10:14:00,35.8,32.6,30.17,NNE,22,8.2,13.8,88,0.00,CLR,CLR,0.20,WeatherDisplay:10.37,2013-05-04 15:14:00,
2013-05-04 10:20:00,35.8,32.6,30.17,North,0,9.6,12.7,88,0.00,CLR,CLR,0.20,WeatherDisplay:10.37,2013-05-04 15:20:00,
2013-05-04 10:25:00,35.8,32.6,30.17,NNE,22,7.9,11.5,88,0.00,CLR,CLR,0.20,WeatherDisplay:10.37,2013-05-04 15:25:00,
2013-05-04 10:30:00,36.1,32.9,30.18,NNE,22,4.9,9.2,88,0.00,CLR,CLR,0.20,WeatherDisplay:10.37,2013-05-04 15:30:00,
2013-05-04 10:35:00,36.3,33.1,30.18,North,0,7.7,9.2,88,0.00,CLR,CLR,0.20,WeatherDisplay:10.37,2013-05-04 15:35:00,
2013-05-04 10:40:00,36.3,32.8,30.17,North,0,9.6,12.7,87,0.00,CLR,CLR,0.20,WeatherDisplay:10.37,2013-05-04 15:40:00,
2013-05-04 10:45:00,36.5,33.0,30.17,NNE,22,9.0,11.5,87,0.00,CLR,CLR,0.20,WeatherDisplay:10.37,2013-05-04 15:45:00,
2013-05-04 10:50:00,36.7,33.2,30.17,North,0,7.1,11.5,87,0.00,CLR,CLR,0.20,WeatherDisplay:10.37,2013-05-04 15:50:00,
2013-05-04 10:56:00,36.9,33.1,30.17,North,0,6.7,10.4,86,0.00,CLR,CLR,0.20,WeatherDisplay:10.37,2013-05-04 15:56:00,
2013-05-04 11:01:00,37.0,33.2,30.18,NNE,22,7.0,10.4,86,0.00,CLR,CLR,0.20,WeatherDisplay:10.37,2013-05-04 16:01:00,
2013-05-04 11:06:00,37.0,33.2,30.18,North,0,6.1,9.2,86,0.00,CLR,CLR,0.20,WeatherDisplay:10.37,2013-05-04 16:06:00,
2013-05-04 11:11:00,37.0,33.2,30.18,NE,45,6.9,11.5,86,0.00,CLR,CLR,0.20,WeatherDisplay:10.37,2013-05-04 16:11:00,
2013-05-04 11:16:00,37.2,33.4,30.18,NNE,22,8.5,10.4,86,0.00,CLR,CLR,0.20,WeatherDisplay:10.37,2013-05-04 16:16:00,
2013-05-04 11:21:00,37.4,33.6,30.18,NNE,22,10.1,12.7,86,0.00,CLR,CLR,0.20,WeatherDisplay:10.37,2013-05-04 16:21:00,
2013-05-04 11:26:00,37.6,33.5,30.18,North,0,6.6,11.5,85,0.00,CLR,CLR,0.20,WeatherDisplay:10.37,2013-05-04 16:26:00,
2013-05-04 11:31:00,37.8,33.7,30.18,North,0,9.0,11.5,85,0.00,CLR,CLR,0.20,WeatherDisplay:10.37,2013-05-04 16:31:00,
2013-05-04 11:36:00,37.9,33.8,30.18,NNE,22,8.9,10.4,85,0.02,RA,RA,0.22,WeatherDisplay:10.37,2013-05-04 16:36:00,
2013-05-04 11:42:00,37.9,33.8,30.19,NNE,22,10.9,12.7,85,0.02,RA,RA,0.22,WeatherDisplay:10.37,2013-05-04 16:42:00,
2013-05-04 11:47:00,37.9,33.8,30.19,NNW,338,7.8,13.8,85,0.02,,,0.22,WeatherDisplay:10.37,2013-05-04 16:47:00,
2013-05-04 11:52:00,37.9,33.5,30.18,North,0,11.3,14.5,84,0.02,CLR,CLR,0.22,WeatherDisplay:10.37,2013-05-04 16:52:00,
2013-05-04 11:57:00,37.9,33.5,30.18,NNE,22,9.2,10.4,84,0.02,CLR,CLR,0.22,WeatherDisplay:10.37,2013-05-04 16:57:00,
2013-05-04 12:02:00,38.3,34.2,30.18,NE,45,7.8,10.4,85,0.02,CLR,CLR,0.22,WeatherDisplay:10.37,2013-05-04 17:02:00,
2013-05-04 12:07:00,38.5,34.4,30.18,NNE,22,8.5,11.5,85,0.02,CLR,CLR,0.22,WeatherDisplay:10.37,2013-05-04 17:07:00,
2013-05-04 12:13:00,38.7,34.2,30.18,North,0,10.1,15.0,84,0.02,CLR,CLR,0.22,WeatherDisplay:10.37,2013-05-04 17:13:00,
2013-05-04 12:18:00,39.0,34.6,30.18,West,270,7.9,12.7,84,0.02,CLR,CLR,0.22,WeatherDisplay:10.37,2013-05-04 17:18:00,
2013-05-04 12:23:00,39.4,34.9,30.17,North,0,7.1,11.5,84,0.02,CLR,CLR,0.22,WeatherDisplay:10.37,2013-05-04 17:23:00,
2013-05-04 12:28:00,39.6,34.8,30.17,North,0,8.4,10.4,83,0.02,CLR,CLR,0.22,WeatherDisplay:10.37,2013-05-04 17:28:00,
2013-05-04 12:33:00,39.4,34.3,30.17,North,0,9.4,11.5,82,0.02,CLR,CLR,0.22,WeatherDisplay:10.37,2013-05-04 17:33:00,
2013-05-04 12:39:00,39.4,34.6,30.17,NE,45,9.1,10.4,83,0.00,CLR,CLR,0.22,WeatherDisplay:10.37,2013-05-04 17:39:00,
2013-05-04 12:44:00,39.6,34.8,30.16,NW,315,11.9,15.0,83,0.00,CLR,CLR,0.22,WeatherDisplay:10.37,2013-05-04 17:44:00,
2013-05-04 12:49:00,39.9,35.2,30.16,NE,45,8.8,10.4,83,0.00,CLR,CLR,0.22,WeatherDisplay:10.37,2013-05-04 17:49:00,
2013-05-04 12:54:00,40.3,35.5,30.16,North,0,8.0,11.6,83,0.00,CLR,CLR,0.22,WeatherDisplay:10.37,2013-05-04 17:54:00,
2013-05-04 12:59:00,40.3,35.2,30.16,North,0,8.4,12.7,82,0.00,CLR,CLR,0.22,WeatherDisplay:10.37,2013-05-04 17:59:00,
2013-05-04 13:04:00,40.3,34.9,30.17,North,0,10.6,11.6,81,0.00,CLR,CLR,0.22,WeatherDisplay:10.37,2013-05-04 18:04:00,
2013-05-04 13:10:00,40.3,35.2,30.16,ENE,68,10.0,16.1,82,0.00,CLR,CLR,0.22,WeatherDisplay:10.37,2013-05-04 18:10:00,
2013-05-04 13:15:00,39.9,34.9,30.16,NNW,338,8.6,12.7,82,0.00,CLR,CLR,0.22,WeatherDisplay:10.37,2013-05-04 18:15:00,
2013-05-04 13:20:00,39.9,34.9,30.16,NNW,338,9.6,14.3,82,0.00,CLR,CLR,0.22,WeatherDisplay:10.37,2013-05-04 18:20:00,
2013-05-04 13:25:00,39.9,34.9,30.16,NNE,22,10.1,11.5,82,0.00,CLR,CLR,0.22,WeatherDisplay:10.37,2013-05-04 18:25:00,
2013-05-04 13:30:00,39.9,35.2,30.16,NNE,22,6.3,8.1,83,0.00,CLR,CLR,0.22,WeatherDisplay:10.37,2013-05-04 18:30:00,
2013-05-04 13:36:00,40.1,35.4,30.16,NNE,22,8.4,9.2,83,0.00,CLR,CLR,0.22,WeatherDisplay:10.37,2013-05-04 18:36:00,
2013-05-04 13:41:00,40.3,35.5,30.16,NNW,338,7.3,12.7,83,0.00,CLR,CLR,0.22,WeatherDisplay:10.37,2013-05-04 18:41:00,
2013-05-04 13:46:00,40.8,36.1,30.16,North,0,8.3,10.4,83,0.00,CLR,CLR,0.22,WeatherDisplay:10.37,2013-05-04 18:46:00,
2013-05-04 13:52:00,40.8,35.7,30.17,NNE,22,9.0,12.7,82,0.00,CLR,CLR,0.22,WeatherDisplay:10.37,2013-05-04 18:52:00,
2013-05-04 13:57:00,41.0,35.9,30.17,North,0,6.4,11.8,82,0.00,CLR,CLR,0.22,WeatherDisplay:10.37,2013-05-04 18:57:00,
2013-05-04 14:02:00,41.2,36.1,30.17,WSW,248,7.1,11.5,82,0.00,CLR,CLR,0.22,WeatherDisplay:10.37,2013-05-04 19:02:00,
2013-05-04 14:07:00,41.2,35.8,30.17,NE,45,8.4,11.5,81,0.00,CLR,CLR,0.22,WeatherDisplay:10.37,2013-05-04 19:07:00,
2013-05-04 14:12:00,41.2,35.8,30.17,North,0,6.8,11.5,81,0.00,CLR,CLR,0.22,WeatherDisplay:10.37,2013-05-04 19:12:00,
2013-05-04 14:17:00,40.8,35.4,30.17,North,0,8.6,11.5,81,0.00,CLR,CLR,0.22,WeatherDisplay:10.37,2013-05-04 19:17:00,
2013-05-04 14:22:00,40.8,35.7,30.17,North,0,10.1,13.8,82,0.00,CLR,CLR,0.22,WeatherDisplay:10.37,2013-05-04 19:22:00,
2013-05-04 14:27:00,40.6,35.6,30.17,NNE,22,3.2,6.7,82,0.00,CLR,CLR,0.22,WeatherDisplay:10.37,2013-05-04 19:27:00,
2013-05-04 14:33:00,40.8,35.7,30.17,North,0,7.6,11.5,82,0.00,CLR,CLR,0.22,WeatherDisplay:10.37,2013-05-04 19:33:00,
2013-05-04 14:38:00,41.0,35.9,30.17,North,0,5.8,9.2,82,0.00,CLR,CLR,0.22,WeatherDisplay:10.37,2013-05-04 19:38:00,
2013-05-04 14:43:00,41.2,36.1,30.17,NNW,338,6.4,11.5,82,0.00,CLR,CLR,0.22,WeatherDisplay:10.37,2013-05-04 19:43:00,
2013-05-04 14:48:00,41.2,36.1,30.16,North,0,9.7,13.8,82,0.00,CLR,CLR,0.22,WeatherDisplay:10.37,2013-05-04 19:48:00,
2013-05-04 14:53:00,41.2,36.1,30.16,North,0,7.2,9.2,82,0.00,CLR,CLR,0.22,WeatherDisplay:10.37,2013-05-04 19:53:00,
2013-05-04 14:58:00,41.2,36.1,30.16,NNW,338,7.4,11.5,82,0.00,CLR,CLR,0.22,WeatherDisplay:10.37,2013-05-04 19:58:00,
2013-05-04 15:04:00,41.4,36.3,30.16,NNW,338,7.0,8.1,82,0.00,CLR,CLR,0.22,WeatherDisplay:10.37,2013-05-04 20:04:00,
2013-05-04 15:09:00,41.5,36.5,30.16,NNW,338,6.7,10.4,82,0.00,CLR,CLR,0.22,WeatherDisplay:10.37,2013-05-04 20:09:00,
2013-05-04 15:14:00,41.5,36.5,30.16,NNE,22,7.4,11.5,82,0.00,CLR,CLR,0.22,WeatherDisplay:10.37,2013-05-04 20:14:00,
2013-05-04 15:19:00,41.5,36.5,30.16,North,0,7.8,9.2,82,0.00,CLR,CLR,0.22,WeatherDisplay:10.37,2013-05-04 20:19:00,
2013-05-04 15:24:00,41.5,36.5,30.16,NW,315,7.2,9.6,82,0.00,CLR,CLR,0.22,WeatherDisplay:10.37,2013-05-04 20:24:00,
2013-05-04 15:29:00,41.7,36.6,30.16,North,0,6.5,9.2,82,0.00,CLR,CLR,0.22,WeatherDisplay:10.37,2013-05-04 20:29:00,
2013-05-04 15:35:00,41.7,36.6,30.16,NNE,22,5.9,9.2,82,0.00,CLR,CLR,0.22,WeatherDisplay:10.37,2013-05-04 20:35:00,
2013-05-04 15:40:00,41.7,36.6,30.16,NNE,22,5.5,9.2,82,0.00,CLR,CLR,0.22,WeatherDisplay:10.37,2013-05-04 20:40:00,
2013-05-04 15:45:00,41.7,36.6,30.16,ENE,68,7.7,11.5,82,0.00,CLR,CLR,0.22,WeatherDisplay:10.37,2013-05-04 20:45:00,
2013-05-04 15:50:00,41.7,36.6,30.16,SE,135,6.0,9.2,82,0.00,CLR,CLR,0.22,WeatherDisplay:10.37,2013-05-04 20:50:00,
2013-05-04 15:55:00,41.5,36.5,30.16,North,0,5.1,8.1,82,0.00,CLR,CLR,0.22,WeatherDisplay:10.37,2013-05-04 20:55:00,
2013-05-04 16:00:00,41.5,36.5,30.17,North,0,4.0,8.1,82,0.00,CLR,CLR,0.22,WeatherDisplay:10.37,2013-05-04 21:00:00,
2013-05-04 16:06:00,41.4,36.3,30.16,North,0,6.7,10.4,82,0.00,CLR,CLR,0.22,WeatherDisplay:10.37,2013-05-04 21:06:00,
2013-05-04 16:11:00,41.2,36.1,30.16,North,0,5.4,8.7,82,0.00,CLR,CLR,0.22,WeatherDisplay:10.37,2013-05-04 21:11:00,
2013-05-04 16:16:00,41.4,36.3,30.16,NE,45,5.7,10.4,82,0.00,CLR,CLR,0.22,WeatherDisplay:10.37,2013-05-04 21:16:00,
2013-05-04 16:21:00,41.5,36.8,30.16,NNE,22,5.1,5.8,83,0.00,CLR,CLR,0.22,WeatherDisplay:10.37,2013-05-04 21:21:00,
2013-05-04 16:26:00,41.7,36.9,30.16,NE,45,7.5,7.5,83,0.00,CLR,CLR,0.22,WeatherDisplay:10.37,2013-05-04 21:26:00,
2013-05-04 16:31:00,41.7,36.6,30.16,NW,315,5.3,9.2,82,0.00,CLR,CLR,0.22,WeatherDisplay:10.37,2013-05-04 21:31:00,
2013-05-04 16:36:00,41.9,36.8,30.16,North,0,6.8,8.7,82,0.00,CLR,CLR,0.22,WeatherDisplay:10.37,2013-05-04 21:36:00,
2013-05-04 16:41:00,41.7,36.6,30.16,North,0,6.4,7.8,82,0.00,CLR,CLR,0.22,WeatherDisplay:10.37,2013-05-04 21:41:00,
2013-05-04 16:47:00,41.5,36.5,30.16,NNE,22,7.8,12.7,82,0.00,CLR,CLR,0.22,WeatherDisplay:10.37,2013-05-04 21:47:00,
2013-05-04 16:52:00,41.5,36.5,30.16,NNW,338,4.7,6.9,82,0.00,CLR,CLR,0.22,WeatherDisplay:10.37,2013-05-04 21:52:00,
2013-05-04 16:57:00,41.7,36.6,30.16,North,0,6.9,10.4,82,0.00,CLR,CLR,0.22,WeatherDisplay:10.37,2013-05-04 21:57:00,
2013-05-04 17:02:00,41.9,36.8,30.16,North,0,4.6,9.2,82,0.00,CLR,CLR,0.22,WeatherDisplay:10.37,2013-05-04 22:02:00,
2013-05-04 17:07:00,41.7,36.6,30.16,North,0,8.7,13.2,82,0.00,CLR,CLR,0.22,WeatherDisplay:10.37,2013-05-04 22:07:00,
2013-05-04 17:12:00,41.7,36.6,30.16,North,0,7.1,8.1,82,0.00,CLR,CLR,0.22,WeatherDisplay:10.37,2013-05-04 22:12:00,
2013-05-04 17:17:00,41.5,36.5,30.16,NW,315,8.9,10.4,82,0.00,CLR,CLR,0.22,WeatherDisplay:10.37,2013-05-04 22:17:00,
2013-05-04 17:22:00,41.7,36.6,30.16,North,0,4.3,5.8,82,0.00,CLR,CLR,0.22,WeatherDisplay:10.37,2013-05-04 22:22:00,
2013-05-04 17:27:00,41.7,36.6,30.17,NW,315,8.9,12.7,82,0.00,CLR,CLR,0.22,WeatherDisplay:10.37,2013-05-04 22:27:00,
2013-05-04 17:32:00,41.7,36.6,30.17,NW,315,7.4,9.2,82,0.00,CLR,CLR,0.22,WeatherDisplay:10.37,2013-05-04 22:32:00,
2013-05-04 17:38:00,41.7,36.6,30.17,NE,45,6.4,10.4,82,0.00,CLR,CLR,0.22,WeatherDisplay:10.37,2013-05-04 22:38:00,
2013-05-04 17:43:00,41.5,36.5,30.17,North,0,7.9,11.5,82,0.00,CLR,CLR,0.22,WeatherDisplay:10.37,2013-05-04 22:43:00,
2013-05-04 17:48:00,41.5,36.5,30.17,NNE,22,5.1,9.2,82,0.00,CLR,CLR,0.22,WeatherDisplay:10.37,2013-05-04 22:48:00,
2013-05-04 17:53:00,41.7,36.9,30.17,NNE,22,6.4,8.1,83,0.00,CLR,CLR,0.22,WeatherDisplay:10.37,2013-05-04 22:53:00,
2013-05-04 17:58:00,41.7,36.9,30.17,North,0,7.1,7.1,83,0.00,CLR,CLR,0.22,WeatherDisplay:10.37,2013-05-04 22:58:00,
2013-05-04 18:03:00,41.7,36.9,30.17,NNE,22,3.4,5.8,83,0.00,CLR,CLR,0.22,WeatherDisplay:10.37,2013-05-04 23:03:00,
2013-05-04 18:08:00,41.7,36.9,30.17,North,0,5.8,8.1,83,0.00,CLR,CLR,0.22,WeatherDisplay:10.37,2013-05-04 23:08:00,
2013-05-04 18:14:00,41.9,37.1,30.17,North,0,7.0,8.1,83,0.00,CLR,CLR,0.22,WeatherDisplay:10.37,2013-05-04 23:14:00,
2013-05-04 18:19:00,41.7,36.9,30.17,North,0,8.4,9.2,83,0.00,CLR,CLR,0.22,WeatherDisplay:10.37,2013-05-04 23:19:00,
2013-05-04 18:24:00,41.7,36.9,30.17,NNW,338,5.9,8.1,83,0.00,CLR,CLR,0.22,WeatherDisplay:10.37,2013-05-04 23:24:00,
2013-05-04 18:29:00,41.7,36.9,30.17,NNW,338,4.1,4.6,83,0.00,CLR,CLR,0.22,WeatherDisplay:10.37,2013-05-04 23:29:00,
2013-05-04 18:34:00,41.5,36.8,30.17,NNW,338,6.7,10.4,83,0.00,CLR,CLR,0.22,WeatherDisplay:10.37,2013-05-04 23:34:00,
2013-05-04 18:40:00,41.5,36.8,30.17,North,0,5.8,11.5,83,0.00,CLR,CLR,0.22,WeatherDisplay:10.37,2013-05-04 23:40:00,
2013-05-04 18:45:00,41.5,36.8,30.16,NNE,22,6.3,9.2,83,0.00,CLR,CLR,0.22,WeatherDisplay:10.37,2013-05-04 23:45:00,
2013-05-04 18:50:00,41.5,36.8,30.17,NW,315,8.7,10.4,83,0.00,CLR,CLR,0.22,WeatherDisplay:10.37,2013-05-04 23:50:00,
2013-05-04 18:55:00,41.2,36.4,30.17,NNE,22,6.0,8.0,83,0.00,CLR,CLR,0.22,WeatherDisplay:10.37,2013-05-04 23:55:00,
2013-05-04 19:00:00,41.2,36.4,30.17,North,0,8.5,10.4,83,0.00,CLR,CLR,0.22,WeatherDisplay:10.37,2013-05-05 00:00:00,
2013-05-04 19:06:00,41.2,36.4,30.17,North,0,6.2,9.2,83,0.00,CLR,CLR,0.22,WeatherDisplay:10.37,2013-05-05 00:06:00,
2013-05-04 19:11:00,41.0,36.5,30.17,North,0,5.0,10.4,84,0.00,CLR,CLR,0.22,WeatherDisplay:10.37,2013-05-05 00:11:00,
2013-05-04 19:16:00,40.8,36.4,30.17,North,0,8.2,10.4,84,0.00,CLR,CLR,0.22,WeatherDisplay:10.37,2013-05-05 00:16:00,
2013-05-04 19:21:00,41.0,36.5,30.17,North,0,11.4,13.8,84,0.00,CLR,CLR,0.22,WeatherDisplay:10.37,2013-05-05 00:21:00,
2013-05-04 19:26:00,40.8,36.4,30.17,North,0,8.7,9.2,84,0.00,CLR,CLR,0.22,WeatherDisplay:10.37,2013-05-05 00:26:00,
2013-05-04 19:32:00,40.8,36.4,30.17,NNE,22,9.5,12.7,84,0.00,CLR,CLR,0.22,WeatherDisplay:10.37,2013-05-05 00:32:00,
2013-05-04 19:37:00,40.8,36.4,30.17,NNE,22,6.6,8.9,84,0.00,CLR,CLR,0.22,WeatherDisplay:10.37,2013-05-05 00:37:00,
2013-05-04 19:42:00,40.8,36.7,30.18,NE,45,6.6,6.9,85,0.00,CLR,CLR,0.22,WeatherDisplay:10.37,2013-05-05 00:42:00,
2013-05-04 19:47:00,40.8,36.7,30.18,NNE,22,7.9,10.4,85,0.00,CLR,CLR,0.22,WeatherDisplay:10.37,2013-05-05 00:47:00,
2013-05-04 19:53:00,40.8,36.7,30.17,North,0,8.0,10.4,85,0.00,CLR,CLR,0.22,WeatherDisplay:10.37,2013-05-05 00:53:00,
2013-05-04 19:58:00,40.8,36.7,30.18,NNE,22,8.3,11.5,85,0.00,CLR,CLR,0.22,WeatherDisplay:10.37,2013-05-05 00:58:00,
2013-05-04 20:03:00,40.8,37.0,30.18,NNE,22,8.5,11.5,86,0.00,CLR,CLR,0.22,WeatherDisplay:10.37,2013-05-05 01:03:00,
2013-05-04 20:08:00,40.6,36.8,30.18,NW,315,7.8,9.2,86,0.00,CLR,CLR,0.22,WeatherDisplay:10.37,2013-05-05 01:08:00,
2013-05-04 20:13:00,40.6,36.8,30.18,North,0,7.4,11.5,86,0.00,CLR,CLR,0.22,WeatherDisplay:10.37,2013-05-05 01:13:00,
2013-05-04 20:19:00,40.6,36.8,30.18,NNE,22,6.4,9.2,86,0.00,CLR,CLR,0.22,WeatherDisplay:10.37,2013-05-05 01:19:00,
2013-05-04 20:24:00,40.5,36.6,30.18,North,0,7.0,9.2,86,0.00,CLR,CLR,0.22,WeatherDisplay:10.37,2013-05-05 01:24:00,
2013-05-04 20:29:00,40.5,36.6,30.18,NNW,338,6.7,10.5,86,0.00,CLR,CLR,0.22,WeatherDisplay:10.37,2013-05-05 01:29:00,
2013-05-04 20:34:00,40.5,36.6,30.18,NNE,22,10.1,11.5,86,0.00,CLR,CLR,0.22,WeatherDisplay:10.37,2013-05-05 01:34:00,
2013-05-04 20:39:00,40.3,36.7,30.18,NNE,22,4.7,6.9,87,0.00,CLR,CLR,0.22,WeatherDisplay:10.37,2013-05-05 01:39:00,
2013-05-04 20:44:00,40.3,36.7,30.18,North,0,5.4,6.9,87,0.00,CLR,CLR,0.00,WeatherDisplay:10.37,2013-05-05 01:44:00,
2013-05-04 20:50:00,40.3,36.7,30.18,NNE,22,5.3,9.2,87,0.00,CLR,CLR,0.00,WeatherDisplay:10.37,2013-05-05 01:50:00,
2013-05-04 20:55:00,40.3,36.7,30.19,North,0,5.6,8.1,87,0.00,CLR,CLR,0.00,WeatherDisplay:10.37,2013-05-05 01:55:00,
2013-05-04 21:00:00,40.3,36.7,30.19,NNE,22,6.4,9.2,87,0.00,CLR,CLR,0.00,WeatherDisplay:10.37,2013-05-05 02:00:00,
2013-05-04 21:05:00,40.3,36.7,30.18,North,0,4.2,5.8,87,0.00,CLR,CLR,0.00,WeatherDisplay:10.37,2013-05-05 02:05:00,
2013-05-04 21:10:00,40.3,36.7,30.18,North,0,5.8,11.5,87,0.00,CLR,CLR,0.00,WeatherDisplay:10.37,2013-05-05 02:10:00,
2013-05-04 21:16:00,40.1,36.8,30.18,NE,45,7.9,10.4,88,0.00,CLR,CLR,0.00,WeatherDisplay:10.37,2013-05-05 02:16:00,
2013-05-04 21:21:00,40.1,36.8,30.19,North,0,6.2,10.4,88,0.00,CLR,CLR,0.00,WeatherDisplay:10.37,2013-05-05 02:21:00,
2013-05-04 21:26:00,40.1,36.8,30.18,NE,45,5.6,8.1,88,0.00,CLR,CLR,0.00,WeatherDisplay:10.37,2013-05-05 02:26:00,
2013-05-04 21:31:00,40.1,36.8,30.18,NNW,338,6.8,10.4,88,0.00,CLR,CLR,0.00,WeatherDisplay:10.37,2013-05-05 02:31:00,
2013-05-04 21:37:00,40.1,36.8,30.18,NE,45,5.1,9.2,88,0.00,CLR,CLR,0.00,WeatherDisplay:10.37,2013-05-05 02:37:00,
2013-05-04 21:42:00,40.1,36.8,30.18,NNE,22,7.1,7.1,88,0.00,CLR,CLR,0.00,WeatherDisplay:10.37,2013-05-05 02:42:00,
2013-05-04 21:47:00,40.1,36.8,30.18,North,0,6.3,10.4,88,0.00,CLR,CLR,0.00,WeatherDisplay:10.37,2013-05-05 02:47:00,
2013-05-04 21:53:00,40.1,36.8,30.19,NNE,22,3.9,8.1,88,0.00,CLR,CLR,0.00,WeatherDisplay:10.37,2013-05-05 02:53:00,
2013-05-04 21:58:00,40.1,36.8,30.19,NNE,22,3.1,4.6,88,0.00,CLR,CLR,0.00,WeatherDisplay:10.37,2013-05-05 02:58:00,
2013-05-04 22:03:00,40.1,36.8,30.19,NNE,22,5.6,5.8,88,0.00,CLR,CLR,0.00,WeatherDisplay:10.37,2013-05-05 03:03:00,
2013-05-04 22:08:00,40.1,36.8,30.19,NNE,22,5.2,8.1,88,0.00,CLR,CLR,0.00,WeatherDisplay:10.37,2013-05-05 03:08:00,
2013-05-04 22:13:00,40.3,37.0,30.19,North,0,6.6,8.1,88,0.00,CLR,CLR,0.00,WeatherDisplay:10.37,2013-05-05 03:13:00,
2013-05-04 22:18:00,40.1,36.8,30.19,NE,45,3.4,5.8,88,0.00,CLR,CLR,0.00,WeatherDisplay:10.37,2013-05-05 03:18:00,
2013-05-04 22:24:00,40.3,37.0,30.18,North,0,2.7,3.8,88,0.00,CLR,CLR,0.00,WeatherDisplay:10.37,2013-05-05 03:24:00,
2013-05-04 22:29:00,40.3,37.0,30.19,North,0,3.4,4.6,88,0.00,CLR,CLR,0.00,WeatherDisplay:10.37,2013-05-05 03:29:00,
2013-05-04 22:34:00,40.3,37.0,30.19,North,0,3.8,4.6,88,0.00,CLR,CLR,0.00,WeatherDisplay:10.37,2013-05-05 03:34:00,
2013-05-04 22:39:00,40.3,37.0,30.19,NNE,22,2.7,4.6,88,0.00,CLR,CLR,0.00,WeatherDisplay:10.37,2013-05-05 03:39:00,
2013-05-04 22:44:00,40.3,36.7,30.19,North,0,4.3,7.8,87,0.00,CLR,CLR,0.00,WeatherDisplay:10.37,2013-05-05 03:44:00,
2013-05-04 22:49:00,40.3,36.7,30.19,NNE,22,1.9,3.5,87,0.00,CLR,CLR,0.00,WeatherDisplay:10.37,2013-05-05 03:49:00,
2013-05-04 22:54:00,40.3,36.7,30.19,North,0,2.2,3.5,87,0.00,CLR,CLR,0.00,WeatherDisplay:10.37,2013-05-05 03:54:00,
2013-05-04 23:00:00,40.3,36.7,30.19,NNE,22,2.6,3.6,87,0.00,CLR,CLR,0.00,WeatherDisplay:10.37,2013-05-05 04:00:00,
2013-05-04 23:01:00,40.3,36.7,30.19,NNE,22,3.9,5.8,87,0.00,CLR,CLR,0.00,WeatherDisplay:10.37,2013-05-05 04:01:00,
2013-05-04 23:02:00,40.3,36.7,30.19,NNE,22,3.0,4.6,87,0.00,CLR,CLR,0.00,WeatherDisplay:10.37,2013-05-05 04:02:00,
2013-05-04 23:04:00,40.3,36.7,30.18,NE,45,3.7,4.6,87,0.00,CLR,CLR,0.00,WeatherDisplay:10.37,2013-05-05 04:04:00,
2013-05-04 23:09:00,40.3,36.7,30.19,North,0,2.4,3.5,87,0.00,CLR,CLR,0.00,WeatherDisplay:10.37,2013-05-05 04:09:00,
2013-05-04 23:14:00,40.3,36.7,30.19,NNE,22,2.3,3.5,87,0.00,CLR,CLR,0.00,WeatherDisplay:10.37,2013-05-05 04:14:00,
2013-05-04 23:19:00,40.3,36.7,30.19,NE,45,1.9,4.6,87,0.00,CLR,CLR,0.00,WeatherDisplay:10.37,2013-05-05 04:19:00,
2013-05-04 23:25:00,40.3,36.7,30.18,NE,45,2.5,2.5,87,0.00,CLR,CLR,0.00,WeatherDisplay:10.37,2013-05-05 04:25:00,
2013-05-04 23:30:00,40.3,36.7,30.18,NE,45,2.5,6.9,87,0.00,CLR,CLR,0.00,WeatherDisplay:10.37,2013-05-05 04:30:00,
2013-05-04 23:35:00,40.3,36.7,30.18,NE,45,3.3,4.6,87,0.00,CLR,CLR,0.00,WeatherDisplay:10.37,2013-05-05 04:35:00,
2013-05-04 23:40:00,40.3,36.4,30.18,East,90,2.5,3.8,86,0.00,CLR,CLR,0.00,WeatherDisplay:10.37,2013-05-05 04:40:00,
2013-05-04 23:46:00,40.3,36.4,30.18,NE,45,3.0,3.5,86,0.00,CLR,CLR,0.00,WeatherDisplay:10.37,2013-05-05 04:46:00,
2013-05-04 23:51:00,40.3,36.4,30.18,NNE,22,0.6,3.5,86,0.00,CLR,CLR,0.00,WeatherDisplay:10.37,2013-05-05 04:51:00,
2013-05-04 23:56:00,40.3,36.4,30.18,NNE,22,3.5,5.8,86,0.00,CLR,CLR,0.00,WeatherDisplay:10.37,2013-05-05 04:56:00,